This is the latest recevied weather packets stored in our database for station/object DC1MAK-13. If no packets are shown the sender has not sent any weather packets the latest 10 day(s).
| Time | Temp. | Humidity | Pressure | Rain* | Wind** | Luminosity | Snow |
|---|---|---|---|---|---|---|---|
| 1787604600 | 16.67° C | 57% | 984 hPa | - | - | - | - |
| 1787604297 | 16.67° C | 57% | 984 hPa | - | - | - | - |
| 1787604291 | 16.67° C | 57% | 984 hPa | - | - | - | - |
| 1787603993 | 16.67° C | 61% | 984.1 hPa | - | - | - | - |
| 1787603087 | 17.22° C | 58% | 984.5 hPa | - | - | - | - |
| 1787603077 | 17.22° C | 58% | 984.5 hPa | - | - | - | - |
| 1787602780 | 17.22° C | 58% | 984.4 hPa | - | - | - | - |
| 1787602774 | 17.22° C | 58% | 984.4 hPa | - | - | - | - |
| 1787602476 | 17.22° C | 58% | 984.4 hPa | - | - | - | - |
| 1787602173 | 17.22° C | 57% | 984.4 hPa | - | - | - | - |
| 1787602167 | 17.22° C | 57% | 984.4 hPa | - | - | - | - |
| 1787601567 | 17.22° C | 56% | 984.6 hPa | - | - | - | - |
| 1787601560 | 17.22° C | 56% | 984.6 hPa | - | - | - | - |
| 1787601267 | 17.22° C | 57% | 984.6 hPa | - | - | - | - |
| 1787601256 | 17.22° C | 57% | 984.6 hPa | - | - | - | - |
| 1787600959 | 17.22° C | 59% | 984.6 hPa | - | - | - | - |
| 1787600655 | 17.22° C | 62% | 984.7 hPa | - | - | - | - |
| 1787600649 | 17.22° C | 62% | 984.7 hPa | - | - | - | - |
| 1787600352 | 17.22° C | 63% | 985 hPa | - | - | - | - |
| 1787600346 | 17.22° C | 63% | 985 hPa | - | - | - | - |
| 1787600043 | 17.22° C | 63% | 985.4 hPa | - | - | - | - |
| 1787599747 | 17.22° C | 62% | 985.4 hPa | - | - | - | - |
| 1787599447 | 17.22° C | 62% | 985.4 hPa | - | - | - | - |
| 1787599436 | 17.22° C | 62% | 985.4 hPa | - | - | - | - |
| 1787599138 | 17.78° C | 62% | 985.4 hPa | - | - | - | - |
* Rain since midnight (hover to see other rain measurements)
** Current wind speed in m/s (hover to see current wind gust speed)